| time (UTC) | temp C | wind direction | speed KPH | gust KPH | rain 1hr cm | rain 24hr cm | rain mn cm | humidity % | barometer mb |
| 20260831082510 | 16 | 270 | 0.0 | 0.0 | 0.00 | 0.00 | 0.30 | 10 | 1004.6 |
| 20260831082453 | 16 | 225 | 8.0 | 14.5 | 0.00 | 0.00 | 0.30 | 10 | 1004.2 |
| 20260831081932 | 16 | 247 | 9.7 | 17.7 | 0.00 | 0.00 | 0.30 | 10 | 1003.7 |
| 20260831081417 | 16 | 225 | 9.7 | 17.7 | 0.00 | 0.00 | 0.30 | 9 | 1004.0 |
| 20260831080902 | 16 | 247 | 9.7 | 19.3 | 0.00 | 0.00 | 0.30 | 9 | 1003.2 |
| 20260831080341 | 16 | 225 | 8.0 | 12.9 | 0.00 | 0.00 | 0.30 | 10 | 1003.8 |
| 20260831080326 | 16 | 247 | 8.0 | 17.7 | 0.00 | 0.00 | 0.30 | 10 | 1003.5 |
| 20260831075805 | 15 | 225 | 8.0 | 12.9 | 0.00 | 0.00 | 0.30 | 9 | 1003.8 |
| 20260831075249 | 15 | 225 | 8.0 | 14.5 | 0.00 | 0.00 | 0.30 | 9 | 1003.7 |
| 20260831074735 | 15 | 225 | 8.0 | 16.1 | 0.00 | 0.00 | 0.30 | 10 | 1003.9 |
| 20260831074214 | 15 | 225 | 4.8 | 6.4 | 0.00 | 0.00 | 0.30 | 9 | 1003.4 |
| 20260831074158 | 15 | 225 | 6.4 | 11.3 | 0.00 | 0.00 | 0.30 | 9 | 1003.6 |
| 20260831073643 | 15 | 180 | 6.4 | 16.1 | 0.00 | 0.00 | 0.30 | 9 | 1004.3 |
| 20260831073128 | 15 | 202 | 8.0 | 16.1 | 0.00 | 0.00 | 0.30 | 10 | 1005.6 |
| 20260831072607 | 15 | 247 | 6.4 | 12.9 | 0.00 | 0.00 | 0.30 | 10 | 1004.1 |
| 20260831072046 | 15 | 247 | 0.0 | 0.0 | 0.00 | 0.00 | 0.30 | 10 | 1004.1 |
| 20260831072030 | 15 | 247 | 9.7 | 17.7 | 0.00 | 0.00 | 0.30 | 9 | 1004.4 |
| 20260831071515 | 15 | 202 | 9.7 | 14.5 | 0.00 | 0.00 | 0.30 | 9 | 1004.0 |
| 20260831070954 | 15 | 225 | 6.4 | 11.3 | 0.00 | 0.00 | 0.30 | 9 | 1003.5 |
| 20260831070439 | 14 | 202 | 6.4 | 11.3 | 0.00 | 0.00 | 0.30 | 9 | 1003.8 |
| 20260831065918 | 14 | 225 | 6.4 | 6.4 | 0.00 | 0.00 | 0.28 | 9 | 1004.4 |
| 20260831065902 | 14 | 180 | 6.4 | 9.7 | 0.00 | 0.00 | 0.30 | 9 | 1004.4 |
| 20260831065341 | 14 | 202 | 6.4 | 8.0 | 0.00 | 0.00 | 0.28 | 9 | 1004.4 |
| 20260831064826 | 14 | 202 | 4.8 | 8.0 | 0.00 | 0.00 | 0.28 | 9 | 1004.2 |
| 20260831064311 | 14 | 225 | 4.8 | 8.0 | 0.00 | 0.00 | 0.28 | 9 | 1004.5 |
| 20260831063750 | 14 | 225 | 6.4 | 8.0 | 0.00 | 0.00 | 0.25 | 9 | 1004.7 |
| 20260831063734 | 14 | 225 | 6.4 | 9.7 | 0.00 | 0.00 | 0.28 | 9 | 1004.4 |
| 20260831063213 | 14 | 225 | 4.8 | 8.0 | 0.00 | 0.00 | 0.25 | 9 | 1004.5 |
| 20260831062658 | 14 | 202 | 0.0 | 4.8 | 0.00 | 0.00 | 0.23 | 9 | 1004.6 |
| 20260831062143 | 14 | 225 | 0.0 | 3.2 | 0.00 | 0.00 | 0.23 | 9 | 1005.1 |
| 20260831061622 | 14 | 180 | 0.0 | 0.0 | 0.00 | 0.00 | 0.20 | 9 | 1006.4 |
| 20260831061606 | 14 | 157 | 0.0 | 4.8 | 0.00 | 0.00 | 0.20 | 9 | 1006.7 |
| 20260831061045 | 15 | 270 | 8.0 | 14.5 | 0.00 | 0.00 | 0.20 | 9 | 1006.4 |
| 20260831060530 | 15 | 270 | 14.5 | 27.4 | 0.00 | 0.00 | 0.15 | 10 | 1006.7 |
| 20260831060015 | 15 | 292 | 19.3 | 37.0 | 0.00 | 0.00 | 0.13 | 10 | 1007.5 |
| 20260831055454 | 15 | 292 | 27.4 | 40.2 | 0.00 | 0.00 | 0.10 | 9 | 1006.9 |
| 20260831055438 | 15 | 270 | 22.5 | 37.0 | 0.00 | 0.00 | 0.15 | 9 | 1007.0 |
| 20260831054917 | 15 | 270 | 24.1 | 40.2 | 0.00 | 0.00 | 0.10 | 9 | 1007.2 |
| 20260831054401 | 15 | 292 | 32.2 | 49.9 | 0.00 | 0.00 | 0.05 | 9 | 1006.1 |
| 20260831053846 | 16 | 315 | 17.7 | 45.1 | 0.00 | 0.00 | 0.00 | 8 | 1003.0 |
| 20260831053326 | 16 | 292 | 6.4 | 8.0 | 0.00 | 0.00 | 0.00 | 8 | 1001.4 |
| 20260831053302 | 16 | 315 | 4.8 | 6.4 | 0.00 | 0.00 | 0.00 | 8 | 1001.2 |
| 20260831052747 | 16 | 270 | 0.0 | 0.0 | 0.00 | 0.00 | 0.00 | 7 | 1000.5 |
| 20260831052232 | 16 | 90 | 0.0 | 0.0 | 0.00 | 0.00 | 0.00 | 7 | 1000.7 |
| 20260831051711 | 16 | 112 | 0.0 | 0.0 | 0.00 | 0.00 | 0.00 | 7 | 1000.9 |
| 20260831051647 | 16 | 135 | 0.0 | 0.0 | 0.00 | 0.00 | 0.00 | 7 | 1000.5 |
| 20260831051131 | 16 | 135 | 0.0 | 0.0 | 0.00 | 0.00 | 0.00 | 7 | 1000.6 |
| 20260831050616 | 16 | 135 | 0.0 | 0.0 | 0.00 | 0.00 | 0.00 | 7 | 1000.8 |
| 20260831050055 | 16 | 135 | 0.0 | 0.0 | 0.00 | 0.00 | 0.00 | 7 | 999.6 |
| 20260831050031 | 16 | 135 | 4.8 | 6.4 | 0.00 | 0.00 | 0.00 | 7 | 999.3 |
| 20260831045516 | 17 | 135 | 4.8 | 6.4 | 0.00 | 0.00 | 0.00 | 6 | 999.6 |
| 20260831045001 | 17 | 135 | 4.8 | 6.4 | 0.00 | 0.00 | 0.00 | 6 | 999.7 |
| 20260831044440 | 16 | 135 | 0.0 | 0.0 | 0.00 | 0.00 | 0.00 | 7 | 1000.3 |
| 20260831044423 | 16 | 135 | 0.0 | 0.0 | 0.00 | 0.00 | 0.00 | 7 | 1000.2 |
| 20260831043902 | 16 | 135 | 0.0 | 0.0 | 0.00 | 0.00 | 0.00 | 7 | 1000.1 |
| 20260831043347 | 16 | 135 | 0.0 | 0.0 | 0.00 | 0.00 | 0.00 | 7 | 1000.5 |
| 20260831042832 | 16 | 135 | 0.0 | 0.0 | 0.00 | 0.00 | 0.00 | 7 | 1000.4 |
| 20260831042311 | 16 | 180 | 0.0 | 0.0 | 0.00 | 0.00 | 0.00 | 7 | 1000.5 |
| 20260831042255 | 16 | 180 | 0.0 | 4.8 | 0.00 | 0.00 | 0.00 | 7 | 1000.5 |
| 20260831041734 | 16 | 180 | 0.0 | 4.8 | 0.00 | 0.00 | 0.00 | 7 | 1000.4 |
| 20260831041219 | 16 | 180 | 0.0 | 4.8 | 0.00 | 0.00 | 0.00 | 7 | 1000.7 |
| 20260831040704 | 15 | 180 | 0.0 | 0.0 | 0.00 | 0.00 | 0.00 | 7 | 1001.4 |
| 20260831040143 | 15 | 180 | 0.0 | 0.0 | 0.00 | 0.00 | 0.00 | 7 | 1001.5 |
| 20260831040120 | 15 | 202 | 0.0 | 0.0 | 0.00 | 0.00 | 0.00 | 7 | 1001.6 |
| 20260831035605 | 15 | 202 | 0.0 | 4.8 | 0.00 | 0.00 | 0.00 | 8 | 1000.5 |
| 20260831035050 | 15 | 180 | 3.2 | 6.4 | 0.00 | 0.00 | 0.00 | 7 | 1000.9 |
| 20260831034529 | 16 | 202 | 4.8 | 4.8 | 0.00 | 0.00 | 0.00 | 7 | 1000.4 |
| 20260831034504 | 16 | 180 | 0.0 | 6.4 | 0.00 | 0.00 | 0.00 | 7 | 1000.4 |
| 20260831033949 | 16 | 180 | 0.0 | 0.0 | 0.00 | 0.00 | 0.00 | 7 | 1000.7 |
| 20260831033434 | 16 | 202 | 0.0 | 0.0 | 0.00 | 0.00 | 0.00 | 7 | 1000.6 |
| 20260831032913 | 15 | 180 | 0.0 | 0.0 | 0.00 | 0.00 | 0.00 | 7 | 1000.9 |
| 20260831032857 | 15 | 180 | 4.8 | 6.4 | 0.00 | 0.00 | 0.00 | 7 | 1001.0 |
| 20260831032336 | 15 | 180 | 4.8 | 8.0 | 0.00 | 0.00 | 0.00 | 7 | 1000.7 |
| 20260831031820 | 15 | 180 | 4.8 | 8.0 | 0.00 | 0.00 | 0.00 | 7 | 1000.2 |
| 20260831031305 | 16 | 180 | 0.0 | 0.0 | 0.00 | 0.00 | 0.00 | 6 | 1000.8 |
| 20260831030745 | 16 | 225 | 0.0 | 0.0 | 0.00 | 0.00 | 0.00 | 7 | 1001.0 |
| 20260831030729 | 16 | 225 | 0.0 | 0.0 | 0.00 | 0.00 | 0.00 | 7 | 1001.0 |
| 20260831030214 | 17 | 180 | 6.4 | 8.0 | 0.00 | 0.00 | 0.00 | 7 | 1001.9 |
| 20260831025653 | 17 | 270 | 6.4 | 8.0 | 0.00 | 0.00 | 0.00 | 7 | 1000.9 |
| 20260831025138 | 17 | 270 | 6.4 | 11.3 | 0.00 | 0.00 | 0.00 | 7 | 1000.9 |
| 20260831024617 | 17 | 225 | 6.4 | 8.0 | 0.00 | 0.00 | 0.00 | 7 | 1001.1 |
| 20260831024601 | 17 | 270 | 6.4 | 11.3 | 0.00 | 0.00 | 0.00 | 7 | 1001.0 |
| 20260831024040 | 17 | 247 | 6.4 | 8.0 | 0.00 | 0.00 | 0.00 | 7 | 1001.3 |
| 20260831023525 | 17 | 270 | 4.8 | 6.4 | 0.00 | 0.00 | 0.00 | 7 | 1001.2 |
| 20260831023010 | 16 | 247 | 4.8 | 6.4 | 0.00 | 0.00 | 0.00 | 7 | 1000.6 |
| 20260831022449 | 16 | 225 | 0.0 | 0.0 | 0.00 | 0.00 | 0.00 | 7 | 1000.8 |
| 20260831022425 | 16 | 202 | 4.8 | 8.0 | 0.00 | 0.00 | 0.00 | 7 | 1000.8 |
| 20260831021911 | 17 | 225 | 6.4 | 9.7 | 0.00 | 0.00 | 0.00 | 7 | 1002.5 |
| 20260831021355 | 17 | 247 | 6.4 | 9.7 | 0.00 | 0.00 | 0.00 | 7 | 1001.3 |
| 20260831020834 | 17 | 270 | 6.4 | 9.7 | 0.00 | 0.00 | 0.00 | 7 | 1001.6 |
| 20260831020810 | 17 | 247 | 8.0 | 9.7 | 0.00 | 0.00 | 0.00 | 7 | 1001.5 |
| 20260831020255 | 17 | 247 | 8.0 | 11.3 | 0.00 | 0.00 | 0.00 | 7 | 1001.5 |
| 20260831015740 | 17 | 225 | 8.0 | 11.3 | 0.00 | 0.00 | 0.00 | 7 | 1001.5 |
| 20260831015219 | 17 | 247 | 4.8 | 6.4 | 0.00 | 0.00 | 0.00 | 7 | 1001.8 |
| 20260831015202 | 17 | 247 | 6.4 | 9.7 | 0.00 | 0.00 | 0.00 | 7 | 1001.7 |
| 20260831014647 | 17 | 270 | 8.0 | 11.3 | 0.00 | 0.00 | 0.00 | 7 | 1001.6 |
| 20260831014126 | 17 | 247 | 6.4 | 9.7 | 0.00 | 0.00 | 0.00 | 7 | 1001.8 |
| 20260831013611 | 17 | 247 | 6.4 | 9.7 | 0.00 | 0.00 | 0.00 | 7 | 1001.7 |
| 20260831013050 | 17 | 247 | 6.4 | 6.4 | 0.00 | 0.00 | 0.00 | 7 | 1001.5 |
| 20260831013033 | 17 | 270 | 8.0 | 11.3 | 0.00 | 0.00 | 0.00 | 7 | 1001.5 |
| 20260831012512 | 17 | 247 | 8.0 | 11.3 | 0.00 | 0.00 | 0.00 | 7 | 1001.5 |
| 20260831011957 | 17 | 247 | 8.0 | 9.7 | 0.00 | 0.00 | 0.00 | 7 | 1001.5 |
| 20260831011436 | 17 | 247 | 6.4 | 9.7 | 0.00 | 0.00 | 0.00 | 7 | 1001.8 |
| 20260831011419 | 17 | 247 | 8.0 | 11.3 | 0.00 | 0.00 | 0.00 | 7 | 1001.6 |
| 20260831010858 | 17 | 270 | 6.4 | 9.7 | 0.00 | 0.00 | 0.00 | 7 | 1001.4 |
| 20260831010343 | 17 | 270 | 6.4 | 11.3 | 0.00 | 0.00 | 0.00 | 7 | 1001.6 |
| 20260831005828 | 17 | 270 | 4.8 | 8.0 | 0.00 | 0.00 | 0.00 | 7 | 1001.7 |
| 20260831005307 | 18 | 270 | 6.4 | 8.0 | 0.00 | 0.00 | 0.00 | 7 | 1001.9 |
| 20260831005251 | 18 | 270 | 6.4 | 9.7 | 0.00 | 0.00 | 0.00 | 7 | 1001.9 |
| 20260831004730 | 18 | 270 | 4.8 | 9.7 | 0.00 | 0.00 | 0.00 | 7 | 1001.7 |
| 20260831004215 | 18 | 270 | 6.4 | 9.7 | 0.00 | 0.00 | 0.00 | 7 | 1001.5 |
| 20260831003700 | 18 | 270 | 4.8 | 8.0 | 0.00 | 0.00 | 0.00 | 7 | 1001.6 |
| 20260831003139 | 18 | 270 | 4.8 | 6.4 | 0.00 | 0.00 | 0.00 | 7 | 1001.7 |
| 20260831003123 | 18 | 270 | 6.4 | 9.7 | 0.00 | 0.00 | 0.00 | 7 | 1001.8 |
| 20260831002608 | 18 | 270 | 4.8 | 8.0 | 0.00 | 0.00 | 0.00 | 7 | 1001.7 |
| 20260831002047 | 18 | 270 | 4.8 | 8.0 | 0.00 | 0.00 | 0.00 | 7 | 1001.6 |
| 20260831001532 | 18 | 270 | 6.4 | 11.3 | 0.00 | 0.00 | 0.00 | 7 | 1001.5 |
| 20260831001011 | 18 | 270 | 6.4 | 6.4 | 0.00 | 0.00 | 0.00 | 7 | 1001.4 |
| 20260831000953 | 18 | 225 | 6.4 | 9.7 | 0.00 | 0.00 | 0.00 | 7 | 1001.3 |
| 20260831000432 | 18 | 270 | 4.8 | 6.4 | 0.00 | 0.00 | 0.00 | 6 | 1001.2 |
| 20260830235917 | 18 | 270 | 4.8 | 8.0 | 0.00 | 0.00 | 0.00 | 6 | 1001.5 |
| 20260830235356 | 18 | 270 | 0.0 | 0.0 | 0.00 | 0.00 | 0.00 | 6 | 1001.2 |
| 20260830235340 | 18 | 270 | 6.4 | 9.7 | 0.00 | 0.00 | 0.00 | 6 | 1001.2 |
| 20260830234819 | 18 | 270 | 4.8 | 8.0 | 0.00 | 0.00 | 0.00 | 6 | 1001.4 |
| 20260830234304 | 19 | 270 | 4.8 | 8.0 | 0.00 | 0.00 | 0.00 | 6 | 1001.3 |
| 20260830233749 | 18 | 270 | 4.8 | 8.0 | 0.00 | 0.00 | 0.00 | 6 | 1001.3 |
| 20260830233228 | 18 | 247 | 4.8 | 6.4 | 0.00 | 0.00 | 0.00 | 6 | 1001.2 |
| 20260830233212 | 18 | 247 | 6.4 | 9.7 | 0.00 | 0.00 | 0.00 | 6 | 1001.2 |
| 20260830232651 | 18 | 225 | 6.4 | 8.0 | 0.00 | 0.00 | 0.00 | 6 | 1001.5 |
| 20260830232136 | 18 | 247 | 4.8 | 9.7 | 0.00 | 0.00 | 0.00 | 6 | 1001.3 |
| 20260830231621 | 18 | 225 | 6.4 | 9.7 | 0.00 | 0.00 | 0.00 | 6 | 1001.4 |
| 20260830231100 | 18 | 270 | 6.4 | 6.4 | 0.00 | 0.00 | 0.00 | 6 | 1001.6 |
| 20260830231036 | 18 | 225 | 6.4 | 9.7 | 0.00 | 0.00 | 0.00 | 6 | 1001.7 |
| 20260830230521 | 19 | 270 | 6.4 | 9.7 | 0.00 | 0.00 | 0.00 | 6 | 1000.8 |
| 20260830230006 | 19 | 247 | 6.4 | 12.9 | 0.00 | 0.00 | 0.00 | 6 | 1001.2 |
| 20260830225445 | 19 | 225 | 6.4 | 8.0 | 0.00 | 0.00 | 0.00 | 6 | 1001.4 |
| 20260830225429 | 19 | 247 | 8.0 | 12.9 | 0.00 | 0.00 | 0.00 | 6 | 1001.5 |
| 20260830224908 | 19 | 247 | 9.7 | 14.5 | 0.00 | 0.00 | 0.00 | 6 | 1001.6 |
| 20260830224352 | 19 | 247 | 8.0 | 12.9 | 0.00 | 0.00 | 0.00 | 6 | 1001.4 |
| 20260830223837 | 19 | 225 | 9.7 | 12.9 | 0.00 | 0.00 | 0.00 | 6 | 1001.4 |
| 20260830223316 | 18 | 225 | 6.4 | 6.4 | 0.00 | 0.00 | 0.00 | 6 | 1001.4 |
| 20260830223301 | 18 | 225 | 8.0 | 11.3 | 0.00 | 0.00 | 0.00 | 6 | 1001.1 |
| 20260830222746 | 19 | 225 | 9.7 | 12.9 | 0.00 | 0.00 | 0.00 | 6 | 1001.6 |
| 20260830222231 | 19 | 225 | 8.0 | 12.9 | 0.00 | 0.00 | 0.00 | 6 | 1001.7 |
| 20260830221710 | 19 | 225 | 6.4 | 9.7 | 0.00 | 0.00 | 0.00 | 6 | 1001.8 |
| 20260830221148 | 19 | 247 | 6.4 | 8.0 | 0.00 | 0.00 | 0.00 | 6 | 1001.2 |
| 20260830221133 | 19 | 225 | 8.0 | 11.3 | 0.00 | 0.00 | 0.00 | 6 | 1001.2 |
| 20260830220618 | 19 | 247 | 8.0 | 12.9 | 0.00 | 0.00 | 0.00 | 6 | 1001.2 |
| 20260830220057 | 20 | 225 | 6.4 | 11.3 | 0.00 | 0.00 | 0.00 | 6 | 1000.9 |
| 20260830215542 | 19 | 247 | 6.4 | 9.7 | 0.00 | 0.00 | 0.00 | 6 | 1001.2 |
| 20260830215021 | 20 | 225 | 6.4 | 9.7 | 0.00 | 0.00 | 0.00 | 5 | 1001.6 |
| 20260830215005 | 20 | 202 | 6.4 | 9.7 | 0.00 | 0.00 | 0.00 | 5 | 1001.7 |
| 20260830214444 | 20 | 202 | 4.8 | 6.4 | 0.00 | 0.00 | 0.00 | 6 | 1001.6 |
| 20260830213929 | 20 | 225 | 6.4 | 9.7 | 0.00 | 0.00 | 0.00 | 5 | 1001.3 |
| 20260830213414 | 19 | 202 | 6.4 | 8.0 | 0.00 | 0.00 | 0.00 | 5 | 1000.8 |
| 20260830212853 | 20 | 225 | 6.4 | 8.0 | 0.00 | 0.00 | 0.00 | 5 | 1001.3 |
| 20260830212829 | 20 | 225 | 4.8 | 6.4 | 0.00 | 0.00 | 0.00 | 5 | 1001.5 |
| 20260830212314 | 20 | 225 | 3.2 | 6.4 | 0.00 | 0.00 | 0.00 | 5 | 1001.1 |
| 20260830211759 | 20 | 225 | 4.8 | 6.4 | 0.00 | 0.00 | 0.00 | 5 | 1001.2 |
| 20260830211238 | 20 | 225 | 3.2 | 4.8 | 0.00 | 0.00 | 0.00 | 5 | 1000.9 |
| 20260830211217 | 20 | 225 | 4.8 | 6.4 | 0.00 | 0.00 | 0.00 | 5 | 1001.1 |
| 20260830210702 | 20 | 225 | 0.0 | 4.8 | 0.00 | 0.00 | 0.00 | 5 | 1001.3 |
| 20260830210147 | 20 | 225 | 3.2 | 4.8 | 0.00 | 0.00 | 0.00 | 5 | 1001.4 |
| 20260830205623 | 20 | 225 | 0.0 | 0.0 | 0.00 | 0.00 | 0.00 | 5 | 1001.5 |
| 20260830205558 | 20 | 225 | 4.8 | 6.4 | 0.00 | 0.00 | 0.00 | 5 | 1001.6 |
| 20260830204506 | 20 | 247 | 4.8 | 4.8 | 0.00 | 0.00 | 0.00 | 5 | 1001.2 |
| 20260830204450 | 20 | 225 | 4.8 | 6.4 | 0.00 | 0.00 | 0.00 | 5 | 1001.3 |
| 20260830203922 | 20 | 225 | 4.8 | 6.4 | 0.00 | 0.00 | 0.00 | 5 | 1001.2 |
| 20260830203349 | 20 | 225 | 4.8 | 6.4 | 0.00 | 0.00 | 0.00 | 5 | 1001.6 |
| 20260830203332 | 20 | 225 | 4.8 | 8.0 | 0.00 | 0.00 | 0.00 | 5 | 1001.5 |
| 20260830202229 | 20 | 225 | 4.8 | 4.8 | 0.00 | 0.00 | 0.00 | 5 | 1001.5 |
| 20260830202206 | 20 | 225 | 4.8 | 8.0 | 0.00 | 0.00 | 0.00 | 5 | 1001.5 |
| 20260830201631 | 20 | 225 | 6.4 | 8.0 | 0.00 | 0.00 | 0.00 | 5 | 1001.3 |
| 20260830201107 | 20 | 202 | 6.4 | 6.4 | 0.00 | 0.00 | 0.00 | 5 | 1000.3 |
| 20260830200516 | 20 | 225 | 0.0 | 3.2 | 0.00 | 0.00 | 0.00 | 5 | 1001.0 |
| 20260830195952 | 20 | 225 | 0.0 | 0.0 | 0.00 | 0.00 | 0.00 | 5 | 1001.3 |
| 20260830195431 | 20 | 247 | 0.0 | 0.0 | 0.00 | 0.00 | 0.00 | 5 | 1000.4 |
| 20260830195414 | 20 | 247 | 0.0 | 4.8 | 0.00 | 0.00 | 0.00 | 5 | 999.9 |
| 20260830194853 | 20 | 225 | 0.0 | 6.4 | 0.00 | 0.00 | 0.00 | 5 | 1000.9 |
| 20260830194338 | 21 | 247 | 0.0 | 0.0 | 0.00 | 0.00 | 0.00 | 5 | 999.9 |
| 20260830193814 | 21 | 247 | 0.0 | 0.0 | 0.00 | 0.00 | 0.00 | 5 | 999.8 |
| 20260830193746 | 21 | 247 | 0.0 | 0.0 | 0.00 | 0.00 | 0.00 | 5 | 999.8 |
| 20260830193203 | 20 | 225 | 0.0 | 0.0 | 0.00 | 0.00 | 0.00 | 5 | 1001.3 |
| 20260830191927 | 21 | 225 | 0.0 | 0.0 | 0.00 | 0.00 | 0.00 | 5 | 1000.9 |
| 20260830191810 | 21 | 225 | 0.0 | 0.0 | 0.00 | 0.00 | 0.00 | 5 | 1000.8 |
| 20260830191652 | 21 | 225 | 0.0 | 0.0 | 0.00 | 0.00 | 0.00 | 5 | 1001.0 |
| 20260830191613 | 21 | 225 | 0.0 | 0.0 | 0.00 | 0.00 | 0.00 | 5 | 1001.0 |
| 20260830190345 | 21 | 270 | 4.8 | 8.0 | 0.00 | 0.00 | 0.00 | 5 | 999.7 |
| 20260830185213 | 21 | 270 | 8.0 | 14.5 | 0.00 | 0.00 | 0.00 | 5 | 999.4 |
| 20260830184643 | 21 | 270 | 8.0 | 9.7 | 0.00 | 0.00 | 0.00 | 5 | 999.7 |
| 20260830183939 | 21 | 292 | 11.3 | 19.3 | 0.00 | 0.00 | 0.00 | 5 | 999.3 |
| 20260830182821 | 21 | 270 | 9.7 | 19.3 | 0.00 | 0.00 | 0.00 | 5 | 999.3 |
| 20260830180956 | 22 | 270 | 4.8 | 8.0 | 0.00 | 0.00 | 0.00 | 5 | 999.7 |
| 20260830175745 | 22 | 247 | 0.0 | 0.0 | 0.00 | 0.00 | 0.00 | 5 | 999.9 |
| 20260830175614 | 22 | 292 | 6.4 | 9.7 | 0.00 | 0.00 | 0.00 | 5 | 999.9 |
| 20260830174952 | 22 | 292 | 4.8 | 6.4 | 0.00 | 0.00 | 0.00 | 5 | 1000.1 |
| 20260830174916 | 22 | 270 | 4.8 | 9.7 | 0.00 | 0.00 | 0.00 | 5 | 999.7 |
| 20260830174312 | 22 | 247 | 3.2 | 6.4 | 0.00 | 0.00 | 0.00 | 5 | 999.8 |
| 20260830173725 | 22 | 270 | 0.0 | 0.0 | 0.00 | 0.00 | 0.00 | 5 | 999.6 |
| 20260830173700 | 22 | 270 | 4.8 | 6.4 | 0.00 | 0.00 | 0.00 | 5 | 999.6 |
| 20260830172520 | 22 | 270 | 6.4 | 12.9 | 0.00 | 0.00 | 0.00 | 5 | 999.1 |
| 20260830172005 | 23 | 270 | 6.4 | 11.3 | 0.00 | 0.00 | 0.00 | 5 | 998.8 |
| 20260830171444 | 23 | 270 | 6.4 | 8.0 | 0.00 | 0.00 | 0.00 | 5 | 998.4 |
| 20260830171428 | 23 | 270 | 8.0 | 19.3 | 0.00 | 0.00 | 0.00 | 5 | 998.4 |
| 20260830170907 | 23 | 270 | 8.0 | 16.1 | 0.00 | 0.00 | 0.00 | 5 | 998.7 |
| 20260830170352 | 23 | 270 | 9.7 | 25.7 | 0.00 | 0.00 | 0.00 | 5 | 998.7 |
| 20260830165837 | 23 | 247 | 8.0 | 17.7 | 0.00 | 0.00 | 0.00 | 4 | 999.4 |
| 20260830165316 | 23 | 270 | 11.3 | 16.1 | 0.00 | 0.00 | 0.00 | 4 | 998.8 |
| 20260830165253 | 23 | 225 | 12.9 | 25.7 | 0.00 | 0.00 | 0.00 | 5 | 998.4 |
| 20260830164738 | 23 | 247 | 11.3 | 25.7 | 0.00 | 0.00 | 0.00 | 5 | 997.9 |
| 20260830164223 | 23 | 247 | 12.9 | 25.7 | 0.00 | 0.00 | 0.00 | 5 | 998.8 |
| 20260830163700 | 23 | 247 | 8.0 | 12.9 | 0.00 | 0.00 | 0.00 | 4 | 999.3 |
| 20260830163644 | 23 | 247 | 11.3 | 20.9 | 0.00 | 0.00 | 0.00 | 5 | 998.8 |
| 20260830163123 | 23 | 225 | 11.3 | 19.3 | 0.00 | 0.00 | 0.00 | 4 | 999.4 |
| 20260830162608 | 23 | 225 | 16.1 | 30.6 | 0.00 | 0.00 | 0.00 | 4 | 998.5 |
| 20260830162053 | 23 | 247 | 17.7 | 27.4 | 0.00 | 0.00 | 0.00 | 4 | 998.3 |
| 20260830161532 | 23 | 247 | 17.7 | 24.1 | 0.00 | 0.00 | 0.00 | 4 | 998.9 |
| 20260830161510 | 23 | 247 | 14.5 | 27.4 | 0.00 | 0.00 | 0.00 | 4 | 998.4 |
| 20260830160955 | 23 | 247 | 16.1 | 30.6 | 0.00 | 0.00 | 0.00 | 4 | 998.2 |
| 20260830160440 | 23 | 247 | 16.1 | 30.6 | 0.00 | 0.00 | 0.00 | 4 | 998.8 |
| 20260830155917 | 23 | 247 | 9.7 | 12.9 | 0.00 | 0.00 | 0.00 | 4 | 998.1 |
| 20260830155853 | 23 | 247 | 14.5 | 27.4 | 0.00 | 0.00 | 0.00 | 4 | 998.1 |
| 20260830155338 | 23 | 247 | 12.9 | 27.4 | 0.00 | 0.00 | 0.00 | 4 | 999.1 |
| 20260830154823 | 24 | 225 | 14.5 | 22.5 | 0.00 | 0.00 | 0.00 | 4 | 997.9 |
| 20260830154302 | 25 | 225 | 4.8 | 4.8 | 0.00 | 0.00 | 0.00 | 4 | 999.9 |
| 20260830154244 | 25 | 247 | 11.3 | 17.7 | 0.00 | 0.00 | 0.00 | 4 | 998.7 |
| 20260830153723 | 24 | 247 | 17.7 | 29.0 | 0.00 | 0.00 | 0.00 | 4 | 999.1 |
| 20260830153208 | 23 | 225 | 19.3 | 32.2 | 0.00 | 0.00 | 0.00 | 4 | 998.7 |
| 20260830152646 | 24 | 270 | 16.1 | 20.9 | 0.00 | 0.00 | 0.00 | 4 | 996.9 |
| 20260830152630 | 24 | 270 | 19.3 | 29.0 | 0.00 | 0.00 | 0.00 | 4 | 997.0 |
| 20260830152109 | 25 | 225 | 16.1 | 33.8 | 0.00 | 0.00 | 0.00 | 4 | 998.9 |
| 20260830151554 | 25 | 225 | 12.9 | 27.4 | 0.00 | 0.00 | 0.00 | 4 | 999.4 |
| 20260830151039 | 25 | 247 | 11.3 | 20.9 | 0.00 | 0.00 | 0.00 | 4 | 997.5 |
| 20260830150518 | 25 | 225 | 9.7 | 14.5 | 0.00 | 0.00 | 0.00 | 4 | 998.2 |
| 20260830150502 | 25 | 270 | 14.5 | 27.4 | 0.00 | 0.00 | 0.00 | 4 | 997.6 |
| 20260830145941 | 25 | 225 | 16.1 | 25.7 | 0.00 | 0.00 | 0.00 | 4 | 998.7 |
| 20260830145426 | 24 | 225 | 20.9 | 33.8 | 0.00 | 0.00 | 0.00 | 4 | 998.5 |
| 20260830144911 | 24 | 225 | 22.5 | 35.4 | 0.00 | 0.00 | 0.00 | 4 | 996.8 |
| 20260830144350 | 25 | 180 | 20.9 | 29.0 | 0.00 | 0.00 | 0.00 | 4 | 997.8 |
| 20260830144334 | 25 | 247 | 19.3 | 37.0 | 0.00 | 0.00 | 0.00 | 4 | 997.4 |
| 20260830143813 | 25 | 270 | 20.9 | 33.8 | 0.00 | 0.00 | 0.00 | 4 | 997.1 |
| 20260830143257 | 25 | 247 | 16.1 | 24.1 | 0.00 | 0.00 | 0.00 | 4 | 997.8 |
| 20260830142743 | 24 | 225 | 14.5 | 25.7 | 0.00 | 0.00 | 0.00 | 4 | 997.9 |
| 20260830142222 | 24 | 247 | 17.7 | 22.5 | 0.00 | 0.00 | 0.00 | 4 | 996.6 |
| 20260830142206 | 24 | 247 | 16.1 | 33.8 | 0.00 | 0.00 | 0.00 | 4 | 996.7 |
| 20260830141651 | 24 | 157 | 22.5 | 37.0 | 0.00 | 0.00 | 0.00 | 4 | 997.6 |
| 20260830141136 | 25 | 112 | 22.5 | 40.2 | 0.00 | 0.00 | 0.00 | 4 | 998.1 |
| 20260830140615 | 25 | 112 | 20.9 | 35.4 | 0.00 | 0.00 | 0.00 | 4 | 998.0 |
| 20260830140054 | 25 | 135 | 22.5 | 30.6 | 0.00 | 0.00 | 0.00 | 4 | 998.0 |
| 20260830140037 | 25 | 157 | 24.1 | 37.0 | 0.00 | 0.00 | 0.00 | 4 | 997.6 |
| 20260830135521 | 27 | 270 | 4.8 | 12.9 | 0.00 | 0.00 | 0.00 | 3 | 998.8 |
| 20260830135000 | 28 | 270 | 4.8 | 9.7 | 0.00 | 0.00 | 0.00 | 4 | 999.1 |
| 20260830134439 | 28 | 180 | 0.0 | 0.0 | 0.00 | 0.00 | 0.00 | 4 | 1000.3 |
| 20260830134423 | 28 | 135 | 8.0 | 17.7 | 0.00 | 0.00 | 0.00 | 4 | 1000.4 |
| 20260830133908 | 28 | 315 | 8.0 | 17.7 | 0.00 | 0.00 | 0.00 | 3 | 998.6 |
| 20260830133347 | 27 | 225 | 6.4 | 8.0 | 0.00 | 0.00 | 0.00 | 4 | 998.5 |
| 20260830132832 | 28 | 247 | 6.4 | 16.1 | 0.00 | 0.00 | 0.00 | 4 | 999.0 |
| 20260830132311 | 28 | 315 | 0.0 | 0.0 | 0.00 | 0.00 | 0.00 | 4 | 998.4 |
| 20260830132255 | 28 | 270 | 4.8 | 8.0 | 0.00 | 0.00 | 0.00 | 3 | 998.0 |
| 20260830131734 | 29 | 292 | 6.4 | 9.7 | 0.00 | 0.00 | 0.00 | 4 | 997.7 |
| 20260830131218 | 28 | 270 | 4.8 | 8.0 | 0.00 | 0.00 | 0.00 | 4 | 998.7 |
| 20260830130703 | 27 | 202 | 4.8 | 9.7 | 0.00 | 0.00 | 0.00 | 4 | 997.8 |
| 20260830130142 | 26 | 90 | 0.0 | 0.0 | 0.00 | 0.00 | 0.00 | 4 | 998.9 |
| 20260830130119 | 26 | 225 | 4.8 | 11.3 | 0.00 | 0.00 | 0.00 | 4 | 998.4 |
| 20260830125604 | 29 | 180 | 6.4 | 11.3 | 0.00 | 0.00 | 0.00 | 4 | 999.0 |
| 20260830125049 | 28 | 270 | 6.4 | 11.3 | 0.00 | 0.00 | 0.00 | 4 | 999.1 |
| 20260830124528 | 28 | 135 | 0.0 | 0.0 | 0.00 | 0.00 | 0.00 | 4 | 998.1 |
| 20260830124511 | 28 | 292 | 4.8 | 11.3 | 0.00 | 0.00 | 0.00 | 4 | 997.8 |
| 20260830123950 | 27 | 270 | 6.4 | 0.0 | 0.00 | 0.00 | 0.00 | 5 | 997.2 |
| 20260830123435 | 27 | 270 | 6.4 | 6.4 | 0.00 | 0.00 | 0.00 | 5 | 996.1 |
| 20260830122920 | 28 | 225 | 6.4 | 8.0 | 0.00 | 0.00 | 0.00 | 5 | 998.5 |
| 20260830122359 | 31 | 180 | 0.0 | 0.0 | 0.00 | 0.00 | 0.00 | 6 | 993.6 |
| 20260830110814 | 25 | 225 | 0.0 | 0.0 | 0.00 | 0.00 | 0.00 | 10 | 1001.4 |
| 20260830110253 | 25 | 225 | 0.0 | 0.0 | 0.00 | 0.00 | 0.00 | 10 | 1001.8 |
| 20260830091830 | 27 | 225 | 9.7 | 30.6 | 0.00 | 0.00 | 0.03 | 5 | 1002.1 |
| 20260830091437 | 27 | 225 | 11.3 | 29.0 | 0.00 | 0.00 | 0.00 | 5 | 1002.2 |
| 20260830090916 | 26 | 292 | 6.4 | 11.3 | 0.00 | 0.00 | 0.00 | 5 | 1001.0 |
| 20260830090900 | 26 | 315 | 11.3 | 20.9 | 0.00 | 0.00 | 0.00 | 5 | 1001.1 |
| 20260830090339 | 26 | 270 | 9.7 | 22.5 | 0.00 | 0.00 | 0.00 | 5 | 1001.5 |
| 20260830085824 | 27 | 270 | 9.7 | 25.7 | 0.00 | 0.00 | 0.00 | 5 | 1002.3 |
| 20260830085309 | 26 | 270 | 8.0 | 20.9 | 0.00 | 0.00 | 0.00 | 5 | 1001.6 |
| 20260830084748 | 26 | 270 | 6.4 | 6.4 | 0.00 | 0.00 | 0.00 | 5 | 1002.5 |
| 20260830084725 | 26 | 270 | 9.7 | 19.3 | 0.00 | 0.00 | 0.00 | 5 | 1002.2 |
| 20260830084210 | 26 | 270 | 9.7 | 19.3 | 0.00 | 0.00 | 0.00 | 5 | 1002.2 |
| 20260830083655 | 25 | 270 | 11.3 | 25.7 | 0.00 | 0.00 | 0.00 | 5 | 1001.6 |
| 20260830083134 | 25 | 270 | 4.8 | 8.0 | 0.00 | 0.00 | 0.00 | 5 | 1001.9 |
| 20260830083110 | 25 | 270 | 9.7 | 24.1 | 0.00 | 0.00 | 0.00 | 5 | 1001.6 |